Location: Oroua River
(40.4333°S, 175.4333°E)
Time: 14:13:58
(UTC+00:00)

ALOS - Pass Details

Date: 03 February 2023
Orbit: 679 x 682 km, 98.0° (Epoch: 30 March)

Event Time Altitude Azimuth Distance (km) Brightness Sun altitude
Exits shadow 16:02:12 13° 262° (W) 1,917 4.2 -15.1°
Drops below altitude 10° 16:03:57 10° 240° (WSW) 2,147 4.6 -14.8°
Sets 16:07:22 0° 214° (SW) 3,073 5.7 -14.3°
